Date String (YYYY-MM-DD hh:mm:ss) UTC,Instrument flags,Ambient pressure (hPa),Sample flow (lpm),Bypass flow (lpm),Sample temperature (°C),Ambient temperature (°C),ASC tube jacket temperature (°C),LED temperature (°C),Box temperature (°C),Sample RH (%),Span deviation,Mass concentration (μg/m³),Mass concentration (μg/m³),Mass concentration (μg/m³)
DateTimeUTC,F1_M11,P_M11,Q1_M11,Q2_M11,T1_M11,T2_M11,T3_M11,T4_M11,T5_M11,U1_M11,ZSPAN_M11,X0_M11,X2_M11,X1_M11
2022-11-28 14:00:00,,0812.4,5.01,0.00,22.0,20.8,00.0,30.9,23.9,07.8,0000.0,0000.71,0000.49,0000.42
2022-11-28 14:01:00,,0812.4,5.00,0.00,22.0,20.8,00.0,30.9,23.9,07.9,0000.0,0000.71,0000.49,0000.43
2022-11-28 14:02:00,,0812.4,5.00,0.00,22.0,20.8,00.0,30.9,23.9,07.9,0000.0,0000.78,0000.52,0000.44
2022-11-28 14:03:00,,0812.4,4.99,0.00,22.0,20.8,00.0,30.9,23.9,07.9,0000.0,0000.79,0000.53,0000.44
2022-11-28 14:04:00,,0812.5,4.99,0.00,22.0,20.8,00.0,30.9,23.9,07.9,0000.0,0000.83,0000.55,0000.45
2022-11-28 14:05:00,,0812.5,5.00,0.00,22.0,20.8,00.0,30.9,23.9,08.0,0000.0,0000.84,0000.56,0000.46
2022-11-28 14:06:00,,0812.4,5.00,0.00,22.0,20.7,00.0,30.9,23.9,07.9,0000.0,0000.80,0000.54,0000.46
2022-11-28 14:07:00,,0812.5,5.00,0.00,22.0,20.7,00.0,30.9,23.9,07.9,0000.0,0000.78,0000.54,0000.46
2022-11-28 14:08:00,,0812.5,5.00,0.00,22.0,20.7,00.0,30.9,23.9,07.9,0000.0,0001.24,0000.56,0000.47
2022-11-28 14:09:00,,0812.5,5.01,0.00,22.0,20.8,00.0,30.9,23.9,08.0,0000.0,0001.47,0000.57,0000.47
2022-11-28 14:10:00,,0812.5,5.00,0.00,22.0,20.8,00.0,30.9,23.9,08.1,0000.0,0001.48,0000.57,0000.47
2022-11-28 14:11:00,,0812.5,5.01,0.00,22.0,20.8,00.0,30.9,23.9,07.9,0000.0,0001.48,0000.58,0000.48
2022-11-28 14:12:00,,0812.5,5.00,0.00,22.0,20.8,00.0,30.9,23.9,07.9,0000.0,0001.46,0000.57,0000.48
2022-11-28 14:13:00,,0812.5,4.99,0.00,22.0,20.8,00.0,30.9,23.9,07.9,0000.0,0001.98,0000.57,0000.48
2022-11-28 14:14:00,,0812.5,4.99,0.00,22.0,20.8,00.0,30.9,23.9,08.0,0000.0,0002.79,0000.59,0000.49
2022-11-28 14:15:00,,0812.6,5.01,0.00,22.0,20.8,00.0,30.9,23.9,08.0,0000.0,0002.75,0000.57,0000.49
2022-11-28 14:16:00,,0812.5,5.01,0.00,22.0,20.8,00.0,30.9,23.9,08.0,0000.0,0002.73,0000.57,0000.49
2022-11-28 14:17:00,,0812.5,5.01,0.00,22.0,20.8,00.0,30.9,24.0,07.9,0000.0,0002.74,0000.57,0000.50
2022-11-28 14:18:00,,0812.5,5.00,0.00,22.0,20.8,00.0,30.9,24.0,07.9,0000.0,0002.74,0000.58,0000.50
2022-11-28 14:19:00,,0812.5,4.99,0.00,22.0,20.8,00.0,30.9,23.9,08.0,0000.0,0002.28,0000.57,0000.50
2022-11-28 14:20:00,,0812.5,5.00,0.00,22.0,20.8,00.0,30.9,23.9,08.0,0000.0,0002.08,0000.57,0000.50
2022-11-28 14:21:00,,0812.5,4.99,0.00,22.0,20.8,00.0,30.9,23.9,08.0,0000.0,0002.14,0000.59,0000.50
2022-11-28 14:22:00,,0812.5,5.00,0.00,22.0,20.8,00.0,30.9,23.9,08.0,0000.0,0002.35,0000.58,0000.49
2022-11-28 14:23:00,,0812.5,4.99,0.00,22.0,20.8,00.0,30.9,23.9,08.0,0000.0,0002.55,0000.60,0000.49
2022-11-28 14:24:00,,0812.4,5.00,0.00,22.0,20.7,00.0,30.9,23.9,08.0,0000.0,0002.03,0000.62,0000.50
2022-11-28 14:25:00,,0812.4,5.00,0.00,22.0,20.7,00.0,30.9,23.9,08.1,0000.0,0001.27,0000.62,0000.51
2022-11-28 14:26:00,,0812.4,5.01,0.00,22.0,20.7,00.0,30.9,23.9,08.1,0000.0,0001.43,0000.65,0000.51
2022-11-28 14:27:00,,0812.4,5.00,0.00,22.0,20.8,00.0,30.9,23.9,08.1,0000.0,0001.55,0000.71,0000.51
2022-11-28 14:28:00,,0812.4,4.99,0.00,22.0,20.7,00.0,30.9,23.9,08.4,0000.0,0001.65,0000.75,0000.52
2022-11-28 14:29:00,,0812.5,4.99,0.00,22.0,20.8,00.0,30.9,23.9,08.2,0000.0,0001.71,0000.77,0000.52
2022-11-28 14:30:00,,0812.5,5.00,0.00,22.0,20.8,00.0,30.9,23.9,08.1,0000.0,0001.81,0000.78,0000.53
2022-11-28 14:31:00,,0812.4,5.01,0.00,22.0,20.8,00.0,30.9,23.9,08.1,0000.0,0002.30,0000.81,0000.53
2022-11-28 14:32:00,,0812.4,5.01,0.00,22.0,20.8,00.0,30.9,23.9,08.1,0000.0,0002.40,0000.84,0000.54
2022-11-28 14:33:00,,0812.5,5.00,0.00,22.0,20.8,00.0,30.9,24.0,08.1,0000.0,0002.21,0000.86,0000.55
2022-11-28 14:34:00,,0812.4,5.00,0.00,22.0,20.8,00.0,30.9,23.9,08.1,0000.0,0002.04,0000.85,0000.55
2022-11-28 14:35:00,,0812.5,5.00,0.00,22.0,20.8,00.0,30.9,23.9,08.1,0000.0,0002.00,0000.84,0000.54
2022-11-28 14:36:00,,0812.4,5.00,0.00,22.0,20.7,00.0,30.9,23.9,08.1,0000.0,0002.01,0000.84,0000.54
2022-11-28 14:37:00,,0812.5,5.00,0.00,22.0,20.8,00.0,30.9,23.9,08.2,0000.0,0002.00,0000.86,0000.55
2022-11-28 14:38:00,,0812.5,5.00,0.00,22.0,20.8,00.0,30.9,23.9,08.2,0000.0,0003.19,0000.85,0000.55
2022-11-28 14:39:00,,0812.5,5.00,0.00,22.0,20.8,00.0,30.9,24.0,08.2,0000.0,0003.19,0000.83,0000.56
2022-11-28 14:40:00,,0812.4,5.00,0.00,22.0,20.8,00.0,30.9,24.0,08.2,0000.0,0003.23,0000.84,0000.56
2022-11-28 14:41:00,,0812.4,5.00,0.00,22.0,20.8,00.0,31.0,24.0,08.2,0000.0,0003.20,0000.85,0000.57
2022-11-28 14:42:00,,0812.3,4.99,0.00,22.0,20.8,00.0,31.0,23.9,08.3,0000.0,0002.79,0000.86,0000.58
2022-11-28 14:43:00,,0812.3,5.00,0.00,22.0,20.7,00.0,31.0,23.9,08.5,0000.0,0002.73,0000.84,0000.59
2022-11-28 14:44:00,,0812.3,5.00,0.00,22.0,20.6,00.0,31.0,23.9,08.5,0000.0,0002.80,0000.85,0000.60
2022-11-28 14:45:00,,0812.4,5.00,0.00,22.0,20.5,00.0,31.0,23.9,08.4,0000.0,0002.83,0000.88,0000.62
2022-11-28 14:46:00,,0812.4,4.99,0.00,22.0,20.6,00.0,31.0,23.9,08.6,0000.0,0002.81,0000.87,0000.63
2022-11-28 14:47:00,,0812.3,5.00,0.00,22.0,20.6,00.0,30.9,23.9,08.9,0000.0,0002.77,0000.85,0000.62
2022-11-28 14:48:00,,0812.3,5.00,0.00,22.0,20.7,00.0,30.9,23.9,08.5,0000.0,0002.69,0000.82,0000.62
2022-11-28 14:49:00,,0812.4,5.01,0.00,22.0,20.7,00.0,30.9,23.9,08.7,0000.0,0001.59,0000.84,0000.61
2022-11-28 14:50:00,,0812.3,5.01,0.00,22.0,20.8,00.0,30.9,23.9,08.9,0000.0,0001.43,0000.85,0000.62
2022-11-28 14:51:00,,0812.3,5.00,0.00,22.0,20.8,00.0,30.9,23.9,08.8,0000.0,0001.36,0000.84,0000.62
2022-11-28 14:52:00,,0812.4,5.00,0.00,22.0,20.8,00.0,30.9,24.0,08.7,0000.0,0001.41,0000.86,0000.62
2022-11-28 14:53:00,,0812.3,5.00,0.00,22.0,20.9,00.0,31.0,24.0,08.8,0000.0,0001.40,0000.86,0000.62
2022-11-28 14:54:00,,0812.3,4.99,0.00,22.0,20.9,00.0,31.0,24.0,08.9,0000.0,0001.32,0000.86,0000.61
2022-11-28 14:55:00,,0812.4,5.00,0.00,22.1,20.9,00.0,31.0,24.0,08.9,0000.0,0001.25,0000.85,0000.61
2022-11-28 14:56:00,,0812.4,5.00,0.00,22.1,21.0,00.0,30.9,24.0,08.7,0000.0,0001.20,0000.83,0000.61
2022-11-28 14:57:00,,0812.3,4.99,0.00,22.1,21.0,00.0,31.0,24.0,08.9,0000.0,0001.29,0000.85,0000.61
2022-11-28 14:58:00,,0812.3,5.00,0.00,22.1,21.0,00.0,31.0,24.0,08.4,0000.0,0001.38,0000.88,0000.61
2022-11-28 14:59:00,,0812.2,5.00,0.00,22.1,21.0,00.0,31.0,24.1,08.4,0000.0,0001.39,0000.88,0000.61
